« Back
NWS Peachtree City, Ga » Text Product » GA Regional Weather Roundup


Printer-friendly Version
Current Version              Previous Versions:   1  2  3  4  5  6  7  8  9  

Regional Weather Roundup

629
ASUS42 KFFC 241903
RWRGA
WEATHER ROUNDUP FOR GEORGIA
NATIONAL WEATHER SERVICE PEACHTREE CITY GA
200 PM EST MON NOV 24 2014

NOTE: "FAIR" INDICATES FEW OR NO CLOUDS BELOW 12,000 FEET WITH NO
SIGNIFICANT WEATHER AND/OR OBSTRUCTIONS TO VISIBILITY.

* = USE WITH CAUTION. THE STATIONS MARKED WITH AN ASTERISK MAY NOT
REPORT WEATHER SUCH AS PRECIPITATION, FOG, OR THUNDER AND ARE NOT
QUALITY CONTROLLED BY NWS.

THE REMARK "TC" DENOTES TEMPERATURE READING IN DEGREES CELSIUS.

GAZ001>058-242000-
NORTH GEORGIA

CITY           SKY/WX    TMP DP  RH WIND       PRES   REMARKS
ATLANTA        PTSUNNY   75  54  47 W10       29.79F
ATHENS         SUNNY     76  55  48 W8G16     29.78F
CHAMBLEE       SUNNY     73  51  46 W12       29.78F
PEACHTREE CITY SUNNY     74  54  49 W12       29.79F
ROME           SUNNY     73  52  47 W14G20    29.76F
WEST ATLANTA   SUNNY     74  51  44 SW10      29.78F
GAINESVILLE    SUNNY     71  54  54 SW14      29.80F
CARTERSVILLE   SUNNY     72  50  45 S9G17     29.79F


CITY           SKY/WX    TMP DP  RH WIND       PRES   REMARKS
DALTON*        SUNNY     72  52  49 SW6       29.77S
MARIETTA       MOSUNNY   74  54  49 SW12      29.78F
KENNESAW*      MOSUNNY   73  48  40 W12G21    29.80F
$$

GAZ059>098-102>109-242000-
CENTRAL GEORGIA

CITY           SKY/WX    TMP DP  RH WIND       PRES   REMARKS
AUGUSTA-BUSH   CLOUDY    72  64  76 S8        29.80F
AUGUSTA-DANIEL LGT RAIN  70  65  84 S6        29.81F
COLUMBUS       SUNNY     77  57  50 W7        29.79F
MACON          MOSUNNY   76  59  55 VRB5      29.80F
ROBINS AFB     MOSUNNY   75  65  71 S6        29.80F


CITY           SKY/WX    TMP DP  RH WIND       PRES   REMARKS
LAGRANGE*      SUNNY     78  60  53 W15       29.80F
SYLVANIA*      CLOUDY    69  68  96 SW6       29.86S FOG
MILLEDGEVILLE* SUNNY     79  59  50 CALM      29.79F
$$

GAZ099>101-110>166-242000-
SOUTH GEORGIA

CITY           SKY/WX    TMP DP  RH WIND       PRES   REMARKS
SAVANNAH       CLOUDY    72  66  81 W8        29.87S
VALDOSTA       LGT RAIN  68  66  93 CALM      29.86F FOG
ALMA           RAIN      68  66  93 S7        29.87S FOG
ST SIMONS      CLOUDY    78  69  73 SW8       29.86F
FT STEWART     LGT RAIN  68  65  91 SW8       29.87S
ALBANY         CLOUDY    74  67  78 SW7       29.85F
HUNTER AFB     CLOUDY    71  67  85 W13       29.85F
MOODY AFB      LGT RAIN  68  66  94 W2        29.86F FOG
BRUNSWICK      CLOUDY    82  70  65 SW8       29.86F


CITY           SKY/WX    TMP DP  RH WIND       PRES   REMARKS
BAINBRIDGE*    CLOUDY    79  72  78 SW7       29.84S
MOULTRIE*      CLOUDY    70 N/A N/A S3        29.85F
VIDALIA*       CLOUDY    68  66  94 S7        29.85S
WAYCROSS*      LGT RAIN  71  70  96 NW3       29.87F
DOUGLAS*       CLOUDY    70  66  88 SW7       29.88F
$$



USA.gov is the U.S. government's official web portal to all federal, state and local government web resources and services.